User: anonymous   Login
Location: Antioch Baptist Church
(32.6696°N, 85.7327°W)
Time: 23:10:53
(UTC+00:00)
Language:

Gblst 52 Del rocket - Orbit

View from above orbital plane
View from above orbital plane
View from above satellite
View from above satellite

Ground track
Ground track

The orbit data is extracted from the following two-line orbital elements,

1 25774U 99031E   20263.31037490 -.00000127 +00000-0 +14548-5 0  9995
2 25774 051.5284 220.9602 0374980 265.3836 248.1551 13.46458876046746
Epoch (UTC): 19 September 2020 07:26:56
Eccentricity: 0.0374980
inclination: 51.5284°
perigee height: 805 km
apogee height: 1365 km
right ascension of ascending node: 220.9602°
argument of perigee: 265.3836°
revolutions per day: 13.46458876
mean anomaly at epoch: 248.1551°
orbit number at epoch: 4674

The dashed part of the orbit path shows where the satellite is in the earth's shadow,  

DLR